| time (UTC) | temp F | wind direction | speed MPH | gust MPH | rain 1hr in | rain 24hr in | rain mn in | humidity % | barometer mb |
| 20260831011316 | 89 | 168 | 7.0 | 13.0 | 0.00 | 0.00 | 0.00 | 33 | 1014.7 |
| 20260831010812 | 90 | 161 | 8.0 | 14.0 | 0.00 | 0.00 | 0.00 | 33 | 1014.6 |
| 20260831010306 | 91 | 161 | 8.0 | 17.0 | 0.00 | 0.00 | 0.00 | 32 | 1014.7 |
| 20260831005803 | 91 | 158 | 11.0 | 17.0 | 0.00 | 0.00 | 0.00 | 31 | 1014.7 |
| 20260831005258 | 92 | 164 | 10.0 | 16.0 | 0.00 | 0.00 | 0.00 | 31 | 1014.8 |
| 20260831004752 | 93 | 165 | 14.0 | 22.0 | 0.00 | 0.00 | 0.00 | 30 | 1014.5 |
| 20260831004249 | 93 | 165 | 13.0 | 18.0 | 0.00 | 0.00 | 0.00 | 30 | 1014.6 |
| 20260831003744 | 93 | 155 | 13.0 | 17.0 | 0.00 | 0.00 | 0.00 | 29 | 1014.6 |
| 20260831003240 | 94 | 172 | 14.0 | 17.0 | 0.00 | 0.00 | 0.00 | 29 | 1014.5 |
| 20260831002739 | 94 | 156 | 12.0 | 18.0 | 0.00 | 0.00 | 0.00 | 29 | 1014.5 |
| 20260831002238 | 95 | 162 | 22.0 | 22.0 | 0.00 | 0.00 | 0.00 | 28 | 1014.5 |
| 20260831001735 | 95 | 163 | 15.0 | 21.0 | 0.00 | 0.00 | 0.00 | 28 | 1014.5 |
| 20260831001230 | 95 | 175 | 15.0 | 22.0 | 0.00 | 0.00 | 0.00 | 28 | 1014.5 |
| 20260831000726 | 96 | 160 | 15.0 | 19.0 | 0.00 | 0.00 | 0.00 | 28 | 1014.5 |
| 20260831000221 | 96 | 178 | 15.0 | 19.0 | 0.00 | 0.00 | 0.00 | 27 | 1014.5 |
| 20260830235720 | 96 | 158 | 15.0 | 19.0 | 0.00 | 0.00 | 0.00 | 27 | 1014.5 |
| 20260830235215 | 97 | 187 | 11.0 | 19.0 | 0.00 | 0.00 | 0.00 | 27 | 1014.3 |
| 20260830234710 | 97 | 195 | 16.0 | 17.0 | 0.00 | 0.00 | 0.00 | 27 | 1014.7 |
| 20260830234206 | 98 | 182 | 8.0 | 15.0 | 0.00 | 0.00 | 0.00 | 27 | 1014.7 |
| 20260830233701 | 97 | 182 | 7.0 | 17.0 | 0.00 | 0.00 | 0.00 | 27 | 1014.6 |
| 20260830233157 | 98 | 158 | 16.0 | 21.0 | 0.00 | 0.00 | 0.00 | 26 | 1014.6 |
| 20260830232652 | 98 | 177 | 14.0 | 16.0 | 0.00 | 0.00 | 0.00 | 26 | 1014.7 |
| 20260830232149 | 98 | 157 | 12.0 | 18.0 | 0.00 | 0.00 | 0.00 | 26 | 1014.7 |
| 20260830231645 | 99 | 152 | 9.0 | 14.0 | 0.00 | 0.00 | 0.00 | 26 | 1014.6 |
| 20260830231144 | 98 | 173 | 15.0 | 22.0 | 0.00 | 0.00 | 0.00 | 26 | 1014.6 |
| 20260830230639 | 98 | 179 | 10.0 | 13.0 | 0.00 | 0.00 | 0.00 | 26 | 1014.6 |
| 20260830230139 | 98 | 171 | 12.0 | 16.0 | 0.00 | 0.00 | 0.00 | 26 | 1014.5 |
| 20260830225634 | 98 | 166 | 18.0 | 21.0 | 0.00 | 0.00 | 0.00 | 26 | 1014.5 |
| 20260830225128 | 98 | 167 | 13.0 | 21.0 | 0.00 | 0.00 | 0.00 | 26 | 1014.6 |
| 20260830224628 | 99 | 191 | 18.0 | 25.0 | 0.00 | 0.00 | 0.00 | 25 | 1014.5 |
| 20260830224124 | 99 | 158 | 12.0 | 15.0 | 0.00 | 0.00 | 0.00 | 26 | 1014.6 |
| 20260830223621 | 100 | 189 | 15.0 | 21.0 | 0.00 | 0.00 | 0.00 | 25 | 1014.7 |
| 20260830223120 | 99 | 167 | 13.0 | 19.0 | 0.00 | 0.00 | 0.00 | 26 | 1014.8 |
| 20260830222614 | 98 | 198 | 14.0 | 21.0 | 0.00 | 0.00 | 0.00 | 26 | 1015.0 |
| 20260830222105 | 98 | 162 | 11.0 | 17.0 | 0.00 | 0.00 | 0.00 | 26 | 1014.8 |
| 20260830221600 | 99 | 171 | 14.0 | 21.0 | 0.00 | 0.00 | 0.00 | 26 | 1014.7 |
| 20260830221056 | 99 | 169 | 13.0 | 15.0 | 0.00 | 0.00 | 0.00 | 26 | 1014.7 |
| 20260830220551 | 100 | 199 | 14.0 | 18.0 | 0.00 | 0.00 | 0.00 | 26 | 1014.7 |
| 20260830220049 | 99 | 203 | 21.0 | 23.0 | 0.00 | 0.00 | 0.00 | 26 | 1014.9 |
| 20260830215544 | 99 | 176 | 7.0 | 19.0 | 0.00 | 0.00 | 0.00 | 27 | 1014.8 |
| 20260830215038 | 99 | 161 | 11.0 | 19.0 | 0.00 | 0.00 | 0.00 | 26 | 1014.9 |
| 20260830214533 | 99 | 176 | 11.0 | 15.0 | 0.00 | 0.00 | 0.00 | 26 | 1014.8 |
| 20260830214028 | 99 | 165 | 14.0 | 22.0 | 0.00 | 0.00 | 0.00 | 26 | 1014.8 |
| 20260830213527 | 100 | 187 | 14.0 | 19.0 | 0.00 | 0.00 | 0.00 | 25 | 1014.9 |
| 20260830213023 | 99 | 165 | 13.0 | 19.0 | 0.00 | 0.00 | 0.00 | 26 | 1014.8 |
| 20260830212519 | 101 | 184 | 12.0 | 18.0 | 0.00 | 0.00 | 0.00 | 25 | 1015.0 |
| 20260830212014 | 99 | 209 | 12.0 | 15.0 | 0.00 | 0.00 | 0.00 | 25 | 1015.1 |
| 20260830211508 | 99 | 206 | 15.0 | 18.0 | 0.00 | 0.00 | 0.00 | 25 | 1015.3 |
| 20260830211003 | 99 | 210 | 11.0 | 17.0 | 0.00 | 0.00 | 0.00 | 26 | 1015.1 |
| 20260830210503 | 98 | 215 | 14.0 | 18.0 | 0.00 | 0.00 | 0.00 | 26 | 1015.3 |
| 20260830210001 | 98 | 203 | 8.0 | 26.0 | 0.00 | 0.00 | 0.00 | 26 | 1015.2 |
| 20260830205500 | 100 | 213 | 18.0 | 21.0 | 0.00 | 0.00 | 0.00 | 25 | 1015.5 |
| 20260830204955 | 99 | 159 | 18.0 | 19.0 | 0.00 | 0.00 | 0.00 | 25 | 1015.5 |
| 20260830204454 | 99 | 204 | 23.0 | 23.0 | 0.00 | 0.00 | 0.00 | 26 | 1015.5 |
| 20260830203949 | 99 | 212 | 14.0 | 18.0 | 0.00 | 0.00 | 0.00 | 26 | 1015.6 |
| 20260830203446 | 100 | 189 | 11.0 | 21.0 | 0.00 | 0.00 | 0.00 | 26 | 1015.6 |
| 20260830202945 | 98 | 220 | 14.0 | 17.0 | 0.00 | 0.00 | 0.00 | 27 | 1015.8 |
| 20260830202440 | 99 | 215 | 17.0 | 25.0 | 0.00 | 0.00 | 0.00 | 27 | 1015.7 |
| 20260830201937 | 99 | 201 | 13.0 | 24.0 | 0.00 | 0.00 | 0.00 | 27 | 1015.8 |
| 20260830201430 | 98 | 203 | 13.0 | 22.0 | 0.00 | 0.00 | 0.00 | 27 | 1015.9 |
| 20260830200925 | 98 | 232 | 17.0 | 19.0 | 0.00 | 0.00 | 0.00 | 28 | 1015.9 |
| 20260830200420 | 97 | 202 | 16.0 | 29.0 | 0.00 | 0.00 | 0.00 | 28 | 1016.0 |
| 20260830195914 | 99 | 207 | 16.0 | 21.0 | 0.00 | 0.00 | 0.00 | 27 | 1016.1 |
| 20260830195415 | 98 | 210 | 10.0 | 21.0 | 0.00 | 0.00 | 0.00 | 27 | 1016.0 |
| 20260830194913 | 97 | 221 | 13.0 | 19.0 | 0.00 | 0.00 | 0.00 | 28 | 1015.9 |
| 20260830194413 | 96 | 216 | 19.0 | 21.0 | 0.00 | 0.00 | 0.00 | 29 | 1016.2 |
| 20260830193912 | 98 | 218 | 12.0 | 17.0 | 0.00 | 0.00 | 0.00 | 28 | 1016.2 |
| 20260830193411 | 97 | 212 | 17.0 | 25.0 | 0.00 | 0.00 | 0.00 | 28 | 1016.1 |
| 20260830192907 | 98 | 224 | 10.0 | 18.0 | 0.00 | 0.00 | 0.00 | 28 | 1016.3 |
| 20260830192402 | 97 | 238 | 13.0 | 26.0 | 0.00 | 0.00 | 0.00 | 28 | 1016.5 |
| 20260830191857 | 98 | 213 | 12.0 | 20.0 | 0.00 | 0.00 | 0.00 | 28 | 1016.2 |
| 20260830191357 | 98 | 183 | 19.0 | 27.0 | 0.00 | 0.00 | 0.00 | 27 | 1016.3 |
| 20260830190853 | 98 | 196 | 15.0 | 18.0 | 0.00 | 0.00 | 0.00 | 27 | 1016.7 |
| 20260830190348 | 97 | 210 | 20.0 | 25.0 | 0.00 | 0.00 | 0.00 | 28 | 1016.2 |
| 20260830185846 | 98 | 189 | 17.0 | 25.0 | 0.00 | 0.00 | 0.00 | 27 | 1016.5 |
| 20260830185342 | 98 | 172 | 13.0 | 23.0 | 0.00 | 0.00 | 0.00 | 27 | 1016.5 |
| 20260830184837 | 96 | 217 | 13.0 | 23.0 | 0.00 | 0.00 | 0.00 | 27 | 1016.6 |
| 20260830184336 | 96 | 199 | 8.0 | 19.0 | 0.00 | 0.00 | 0.00 | 28 | 1016.6 |
| 20260830183831 | 96 | 203 | 13.0 | 25.0 | 0.00 | 0.00 | 0.00 | 28 | 1016.8 |
| 20260830183331 | 96 | 212 | 17.0 | 21.0 | 0.00 | 0.00 | 0.00 | 29 | 1016.9 |
| 20260830182826 | 96 | 218 | 16.0 | 21.0 | 0.00 | 0.00 | 0.00 | 29 | 1016.9 |
| 20260830182322 | 96 | 210 | 17.0 | 23.0 | 0.00 | 0.00 | 0.00 | 29 | 1017.0 |
| 20260830181818 | 96 | 203 | 12.0 | 20.0 | 0.00 | 0.00 | 0.00 | 31 | 1017.0 |
| 20260830181314 | 96 | 208 | 10.0 | 23.0 | 0.00 | 0.00 | 0.00 | 31 | 1017.1 |
| 20260830180807 | 95 | 203 | 17.0 | 21.0 | 0.00 | 0.00 | 0.00 | 31 | 1017.5 |
| 20260830180302 | 96 | 203 | 18.0 | 21.0 | 0.00 | 0.00 | 0.00 | 30 | 1017.2 |
| 20260830175801 | 96 | 189 | 16.0 | 21.0 | 0.00 | 0.00 | 0.00 | 31 | 1017.1 |
| 20260830175256 | 96 | 206 | 17.0 | 25.0 | 0.00 | 0.00 | 0.00 | 32 | 1017.5 |
| 20260830174750 | 94 | 228 | 13.0 | 23.0 | 0.00 | 0.00 | 0.00 | 33 | 1017.3 |
| 20260830174246 | 94 | 177 | 16.0 | 21.0 | 0.00 | 0.00 | 0.00 | 33 | 1017.6 |
| 20260830173745 | 95 | 197 | 17.0 | 23.0 | 0.00 | 0.00 | 0.00 | 34 | 1017.7 |
| 20260830173241 | 93 | 213 | 12.0 | 24.0 | 0.00 | 0.00 | 0.00 | 35 | 1017.8 |
| 20260830172737 | 94 | 195 | 11.0 | 22.0 | 0.00 | 0.00 | 0.00 | 35 | 1017.8 |
| 20260830172234 | 92 | 197 | 16.0 | 23.0 | 0.00 | 0.00 | 0.00 | 36 | 1017.8 |
| 20260830171729 | 94 | 193 | 22.0 | 26.0 | 0.00 | 0.00 | 0.00 | 35 | 1017.9 |
| 20260830171224 | 92 | 222 | 19.0 | 26.0 | 0.00 | 0.00 | 0.00 | 37 | 1017.7 |
| 20260830170719 | 92 | 213 | 14.0 | 21.0 | 0.00 | 0.00 | 0.00 | 37 | 1017.9 |
| 20260830170218 | 91 | 218 | 23.0 | 27.0 | 0.00 | 0.00 | 0.00 | 37 | 1018.0 |
| 20260830165717 | 92 | 216 | 19.0 | 25.0 | 0.00 | 0.00 | 0.00 | 38 | 1018.0 |
| 20260830165213 | 92 | 211 | 23.0 | 28.0 | 0.00 | 0.00 | 0.00 | 37 | 1017.9 |
| 20260830164710 | 91 | 208 | 13.0 | 23.0 | 0.00 | 0.00 | 0.00 | 38 | 1017.8 |
| 20260830164205 | 90 | 218 | 13.0 | 25.0 | 0.00 | 0.00 | 0.00 | 39 | 1017.9 |
| 20260830163702 | 90 | 212 | 12.0 | 28.0 | 0.00 | 0.00 | 0.00 | 40 | 1017.8 |
| 20260830163158 | 91 | 203 | 15.0 | 23.0 | 0.00 | 0.00 | 0.00 | 39 | 1018.0 |
| 20260830162652 | 90 | 209 | 17.0 | 25.0 | 0.00 | 0.00 | 0.00 | 40 | 1018.1 |
| 20260830162148 | 90 | 206 | 11.0 | 22.0 | 0.00 | 0.00 | 0.00 | 41 | 1018.1 |
| 20260830161642 | 89 | 202 | 19.0 | 28.0 | 0.00 | 0.00 | 0.00 | 41 | 1018.1 |
| 20260830161137 | 89 | 209 | 14.0 | 21.0 | 0.00 | 0.00 | 0.00 | 43 | 1018.1 |
| 20260830160633 | 87 | 200 | 17.0 | 27.0 | 0.00 | 0.00 | 0.00 | 44 | 1018.2 |
| 20260830160128 | 88 | 211 | 13.0 | 22.0 | 0.00 | 0.00 | 0.00 | 44 | 1018.0 |
| 20260830155625 | 87 | 210 | 15.0 | 26.0 | 0.00 | 0.00 | 0.00 | 45 | 1017.9 |
| 20260830155120 | 86 | 214 | 21.0 | 27.0 | 0.00 | 0.00 | 0.00 | 46 | 1017.9 |
| 20260830154615 | 87 | 196 | 18.0 | 23.0 | 0.00 | 0.00 | 0.00 | 45 | 1018.0 |
| 20260830154111 | 86 | 198 | 19.0 | 24.0 | 0.00 | 0.00 | 0.00 | 47 | 1018.0 |
| 20260830153607 | 86 | 208 | 15.0 | 24.0 | 0.00 | 0.00 | 0.00 | 47 | 1017.8 |
| 20260830153106 | 85 | 211 | 14.0 | 21.0 | 0.00 | 0.00 | 0.00 | 48 | 1017.9 |
| 20260830152601 | 85 | 205 | 13.0 | 26.0 | 0.00 | 0.00 | 0.00 | 48 | 1017.9 |
| 20260830152059 | 84 | 215 | 14.0 | 22.0 | 0.00 | 0.00 | 0.00 | 50 | 1017.8 |
| 20260830151554 | 84 | 219 | 18.0 | 23.0 | 0.00 | 0.00 | 0.00 | 50 | 1018.0 |
| 20260830151049 | 84 | 217 | 15.0 | 19.0 | 0.00 | 0.00 | 0.00 | 50 | 1018.0 |
| 20260830150548 | 83 | 215 | 20.0 | 23.0 | 0.00 | 0.00 | 0.00 | 50 | 1018.0 |
| 20260830150043 | 83 | 202 | 22.0 | 23.0 | 0.00 | 0.00 | 0.00 | 51 | 1018.2 |
| 20260830145543 | 82 | 208 | 19.0 | 24.0 | 0.00 | 0.00 | 0.00 | 51 | 1017.8 |
| 20260830145038 | 83 | 208 | 16.0 | 20.0 | 0.00 | 0.00 | 0.00 | 51 | 1018.1 |
| 20260830144534 | 82 | 209 | 14.0 | 20.0 | 0.00 | 0.00 | 0.00 | 52 | 1017.9 |
| 20260830144030 | 81 | 214 | 17.0 | 24.0 | 0.00 | 0.00 | 0.00 | 53 | 1017.9 |
| 20260830143525 | 81 | 211 | 18.0 | 28.0 | 0.00 | 0.00 | 0.00 | 53 | 1018.0 |
| 20260830143023 | 81 | 214 | 17.0 | 22.0 | 0.00 | 0.00 | 0.00 | 53 | 1018.0 |
| 20260830142519 | 80 | 207 | 17.0 | 24.0 | 0.00 | 0.00 | 0.00 | 54 | 1017.8 |
| 20260830142014 | 80 | 214 | 14.0 | 25.0 | 0.00 | 0.00 | 0.00 | 54 | 1017.9 |
| 20260830141504 | 80 | 207 | 9.0 | 19.0 | 0.00 | 0.00 | 0.00 | 55 | 1017.9 |
| 20260830141004 | 80 | 213 | 15.0 | 21.0 | 0.00 | 0.00 | 0.00 | 55 | 1017.8 |
| 20260830140458 | 79 | 204 | 20.0 | 21.0 | 0.00 | 0.00 | 0.00 | 55 | 1017.9 |
| 20260830135958 | 79 | 211 | 16.0 | 17.0 | 0.00 | 0.00 | 0.00 | 56 | 1017.8 |
| 20260830135453 | 79 | 211 | 11.0 | 16.0 | 0.00 | 0.00 | 0.00 | 57 | 1017.8 |
| 20260830134948 | 78 | 213 | 15.0 | 17.0 | 0.00 | 0.00 | 0.00 | 57 | 1017.7 |
| 20260830134444 | 78 | 202 | 11.0 | 15.0 | 0.00 | 0.00 | 0.00 | 58 | 1018.0 |
| 20260830133939 | 77 | 211 | 11.0 | 13.0 | 0.00 | 0.00 | 0.00 | 59 | 1017.7 |
| 20260830133435 | 77 | 207 | 8.0 | 15.0 | 0.00 | 0.00 | 0.00 | 60 | 1017.8 |
| 20260830132930 | 76 | 210 | 9.0 | 13.0 | 0.00 | 0.00 | 0.00 | 60 | 1017.7 |
| 20260830132427 | 76 | 210 | 9.0 | 15.0 | 0.00 | 0.00 | 0.00 | 61 | 1017.6 |
| 20260830131925 | 75 | 206 | 8.0 | 13.0 | 0.00 | 0.00 | 0.00 | 61 | 1017.7 |
| 20260830131420 | 75 | 205 | 6.0 | 13.0 | 0.00 | 0.00 | 0.00 | 62 | 1017.8 |
| 20260830130915 | 75 | 209 | 8.0 | 12.0 | 0.00 | 0.00 | 0.00 | 62 | 1017.7 |
| 20260830130410 | 74 | 211 | 9.0 | 11.0 | 0.00 | 0.00 | 0.00 | 62 | 1017.8 |
| 20260830125909 | 74 | 216 | 8.0 | 9.0 | 0.00 | 0.00 | 0.00 | 62 | 1017.6 |
| 20260830125405 | 74 | 211 | 7.0 | 9.0 | 0.00 | 0.00 | 0.00 | 62 | 1017.2 |
| 20260830124903 | 74 | 200 | 6.0 | 9.0 | 0.00 | 0.00 | 0.00 | 62 | 1017.3 |
| 20260830124357 | 74 | 210 | 9.0 | 11.0 | 0.00 | 0.00 | 0.00 | 61 | 1017.3 |
| 20260830123854 | 74 | 208 | 6.0 | 9.0 | 0.00 | 0.00 | 0.00 | 62 | 1017.2 |
| 20260830123350 | 74 | 213 | 8.0 | 10.0 | 0.00 | 0.00 | 0.00 | 61 | 1017.3 |
| 20260830122848 | 74 | 205 | 5.0 | 11.0 | 0.00 | 0.00 | 0.00 | 61 | 1017.3 |
| 20260830122343 | 74 | 215 | 10.0 | 10.0 | 0.00 | 0.00 | 0.00 | 61 | 1017.1 |
| 20260830121838 | 74 | 212 | 4.0 | 12.0 | 0.00 | 0.00 | 0.00 | 62 | 1017.2 |
| 20260830121338 | 74 | 205 | 6.0 | 11.0 | 0.00 | 0.00 | 0.00 | 61 | 1017.0 |
| 20260830120833 | 74 | 202 | 6.0 | 7.0 | 0.00 | 0.00 | 0.00 | 61 | 1017.2 |
| 20260830120328 | 74 | 212 | 5.0 | 9.0 | 0.00 | 0.00 | 0.00 | 61 | 1017.1 |
| 20260830115824 | 74 | 221 | 5.0 | 7.0 | 0.00 | 0.00 | 0.00 | 62 | 1017.1 |
| 20260830115321 | 74 | 219 | 10.0 | 14.0 | 0.00 | 0.00 | 0.00 | 60 | 1016.9 |
| 20260830114815 | 74 | 207 | 7.0 | 12.0 | 0.00 | 0.00 | 0.00 | 60 | 1016.9 |
| 20260830114311 | 74 | 212 | 10.0 | 15.0 | 0.00 | 0.00 | 0.00 | 60 | 1016.9 |
| 20260830113801 | 73 | 207 | 7.0 | 13.0 | 0.00 | 0.00 | 0.00 | 61 | 1016.7 |
| 20260830113256 | 73 | 203 | 10.0 | 11.0 | 0.00 | 0.00 | 0.00 | 61 | 1016.6 |
| 20260830112752 | 73 | 205 | 7.0 | 9.0 | 0.00 | 0.00 | 0.00 | 61 | 1016.9 |
| 20260830112248 | 72 | 214 | 6.0 | 10.0 | 0.00 | 0.00 | 0.00 | 62 | 1017.0 |
| 20260830111743 | 72 | 203 | 7.0 | 12.0 | 0.00 | 0.00 | 0.00 | 61 | 1017.0 |
| 20260830111239 | 71 | 209 | 6.0 | 11.0 | 0.00 | 0.00 | 0.00 | 62 | 1016.8 |
| 20260830110738 | 70 | 199 | 9.0 | 12.0 | 0.00 | 0.00 | 0.00 | 63 | 1017.0 |
| 20260830110235 | 70 | 174 | 7.0 | 10.0 | 0.00 | 0.00 | 0.00 | 63 | 1016.5 |
| 20260830105734 | 71 | 184 | 7.0 | 12.0 | 0.00 | 0.00 | 0.00 | 62 | 1016.8 |
| 20260830105230 | 71 | 214 | 10.0 | 12.0 | 0.00 | 0.00 | 0.00 | 60 | 1016.7 |
| 20260830104726 | 71 | 196 | 10.0 | 11.0 | 0.00 | 0.00 | 0.00 | 62 | 1016.8 |
| 20260830104223 | 71 | 183 | 7.0 | 10.0 | 0.00 | 0.00 | 0.00 | 61 | 1016.7 |
| 20260830103722 | 72 | 179 | 7.0 | 11.0 | 0.00 | 0.00 | 0.00 | 60 | 1016.9 |
| 20260830103218 | 72 | 178 | 8.0 | 9.0 | 0.00 | 0.00 | 0.00 | 60 | 1016.9 |
| 20260830102715 | 73 | 195 | 6.0 | 9.0 | 0.00 | 0.00 | 0.00 | 58 | 1016.7 |
| 20260830102212 | 74 | 207 | 8.0 | 11.0 | 0.00 | 0.00 | 0.00 | 56 | 1016.6 |
| 20260830101708 | 74 | 209 | 5.0 | 9.0 | 0.00 | 0.00 | 0.00 | 56 | 1016.7 |
| 20260830101203 | 74 | 203 | 9.0 | 12.0 | 0.00 | 0.00 | 0.00 | 56 | 1016.7 |
| 20260830100657 | 73 | 204 | 7.0 | 10.0 | 0.00 | 0.00 | 0.00 | 57 | 1016.6 |
| 20260830100156 | 73 | 197 | 6.0 | 11.0 | 0.00 | 0.00 | 0.00 | 57 | 1016.5 |
| 20260830095650 | 74 | 203 | 9.0 | 11.0 | 0.00 | 0.00 | 0.00 | 56 | 1016.5 |
| 20260830095147 | 74 | 198 | 8.0 | 12.0 | 0.00 | 0.00 | 0.00 | 55 | 1016.6 |
| 20260830094642 | 74 | 217 | 8.0 | 11.0 | 0.00 | 0.00 | 0.00 | 55 | 1016.5 |
| 20260830094137 | 73 | 205 | 8.0 | 9.0 | 0.00 | 0.00 | 0.00 | 56 | 1016.7 |
| 20260830093632 | 73 | 200 | 6.0 | 10.0 | 0.00 | 0.00 | 0.00 | 56 | 1016.7 |
| 20260830093129 | 73 | 205 | 8.0 | 11.0 | 0.00 | 0.00 | 0.00 | 56 | 1016.5 |
| 20260830092623 | 72 | 211 | 8.0 | 10.0 | 0.00 | 0.00 | 0.00 | 57 | 1016.6 |
| 20260830092121 | 72 | 194 | 5.0 | 9.0 | 0.00 | 0.00 | 0.00 | 58 | 1016.5 |
| 20260830091616 | 72 | 202 | 8.0 | 12.0 | 0.00 | 0.00 | 0.00 | 56 | 1016.7 |
| 20260830091114 | 72 | 207 | 6.0 | 9.0 | 0.00 | 0.00 | 0.00 | 57 | 1016.5 |
| 20260830090609 | 72 | 203 | 6.0 | 10.0 | 0.00 | 0.00 | 0.00 | 56 | 1016.3 |
| 20260830090104 | 72 | 197 | 6.0 | 10.0 | 0.00 | 0.00 | 0.00 | 57 | 1016.3 |
| 20260830085559 | 72 | 204 | 5.0 | 10.0 | 0.00 | 0.00 | 0.00 | 58 | 1016.3 |
| 20260830085055 | 72 | 185 | 7.0 | 9.0 | 0.00 | 0.00 | 0.00 | 57 | 1016.2 |
| 20260830084551 | 73 | 201 | 7.0 | 11.0 | 0.00 | 0.00 | 0.00 | 56 | 1016.5 |
| 20260830084050 | 72 | 184 | 6.0 | 9.0 | 0.00 | 0.00 | 0.00 | 56 | 1016.5 |
| 20260830083546 | 72 | 199 | 9.0 | 9.0 | 0.00 | 0.00 | 0.00 | 56 | 1016.3 |
| 20260830083046 | 72 | 186 | 6.0 | 10.0 | 0.00 | 0.00 | 0.00 | 56 | 1016.3 |
| 20260830082540 | 72 | 205 | 8.0 | 8.0 | 0.00 | 0.00 | 0.00 | 57 | 1016.3 |
| 20260830082036 | 72 | 186 | 5.0 | 9.0 | 0.00 | 0.00 | 0.00 | 56 | 1016.5 |
| 20260830081532 | 72 | 184 | 6.0 | 8.0 | 0.00 | 0.00 | 0.00 | 56 | 1016.5 |
| 20260830081030 | 73 | 179 | 6.0 | 9.0 | 0.00 | 0.00 | 0.00 | 56 | 1016.7 |
| 20260830080526 | 73 | 170 | 6.0 | 9.0 | 0.00 | 0.00 | 0.00 | 56 | 1016.5 |
| 20260830080021 | 73 | 180 | 4.0 | 9.0 | 0.00 | 0.00 | 0.00 | 55 | 1016.7 |
| 20260830075516 | 73 | 184 | 6.0 | 7.0 | 0.00 | 0.00 | 0.00 | 55 | 1017.0 |
| 20260830075011 | 74 | 190 | 4.0 | 8.0 | 0.00 | 0.00 | 0.00 | 54 | 1016.8 |
| 20260830074507 | 74 | 190 | 7.0 | 9.0 | 0.00 | 0.00 | 0.00 | 54 | 1016.7 |
| 20260830074003 | 74 | 196 | 6.0 | 11.0 | 0.00 | 0.00 | 0.00 | 53 | 1016.9 |
| 20260830073458 | 75 | 194 | 5.0 | 10.0 | 0.00 | 0.00 | 0.00 | 53 | 1016.8 |
| 20260830072953 | 75 | 196 | 6.0 | 9.0 | 0.00 | 0.00 | 0.00 | 53 | 1017.0 |
| 20260830072449 | 74 | 196 | 7.0 | 11.0 | 0.00 | 0.00 | 0.00 | 54 | 1017.0 |
| 20260830071948 | 74 | 190 | 6.0 | 10.0 | 0.00 | 0.00 | 0.00 | 54 | 1017.0 |
| 20260830071444 | 74 | 188 | 6.0 | 9.0 | 0.00 | 0.00 | 0.00 | 54 | 1017.0 |
| 20260830070941 | 74 | 185 | 6.0 | 9.0 | 0.00 | 0.00 | 0.00 | 55 | 1016.9 |
| 20260830070437 | 74 | 160 | 4.0 | 9.0 | 0.00 | 0.00 | 0.00 | 55 | 1017.1 |
| 20260830065935 | 74 | 182 | 8.0 | 9.0 | 0.00 | 0.00 | 0.00 | 55 | 1017.2 |
| 20260830065429 | 74 | 183 | 7.0 | 8.0 | 0.00 | 0.00 | 0.00 | 56 | 1017.1 |
| 20260830064927 | 74 | 181 | 7.0 | 9.0 | 0.00 | 0.00 | 0.00 | 55 | 1017.0 |
| 20260830064423 | 74 | 191 | 6.0 | 8.0 | 0.00 | 0.00 | 0.00 | 55 | 1017.1 |
| 20260830063923 | 75 | 194 | 4.0 | 8.0 | 0.00 | 0.00 | 0.00 | 55 | 1017.1 |
| 20260830063418 | 75 | 206 | 6.0 | 9.0 | 0.00 | 0.00 | 0.00 | 54 | 1017.0 |
| 20260830062917 | 75 | 204 | 6.0 | 8.0 | 0.00 | 0.00 | 0.00 | 54 | 1017.1 |
| 20260830062416 | 75 | 186 | 6.0 | 9.0 | 0.00 | 0.00 | 0.00 | 53 | 1017.0 |
| 20260830061912 | 75 | 191 | 7.0 | 9.0 | 0.00 | 0.00 | 0.00 | 53 | 1017.1 |
| 20260830061406 | 76 | 195 | 5.0 | 8.0 | 0.00 | 0.00 | 0.00 | 52 | 1017.3 |
| 20260830060903 | 76 | 204 | 7.0 | 11.0 | 0.00 | 0.00 | 0.00 | 51 | 1017.1 |
| 20260830060359 | 76 | 202 | 9.0 | 11.0 | 0.00 | 0.00 | 0.00 | 50 | 1017.1 |
| 20260830055854 | 77 | 191 | 6.0 | 10.0 | 0.00 | 0.00 | 0.00 | 50 | 1017.1 |
| 20260830055350 | 77 | 181 | 9.0 | 11.0 | 0.00 | 0.00 | 0.00 | 49 | 1017.0 |
| 20260830054845 | 77 | 178 | 8.0 | 9.0 | 0.00 | 0.00 | 0.00 | 48 | 1017.1 |
| 20260830054341 | 78 | 174 | 9.0 | 12.0 | 0.00 | 0.00 | 0.00 | 48 | 1016.8 |
| 20260830053836 | 78 | 177 | 10.0 | 13.0 | 0.00 | 0.00 | 0.00 | 47 | 1017.0 |
| 20260830053331 | 78 | 183 | 7.0 | 11.0 | 0.00 | 0.00 | 0.00 | 48 | 1016.6 |
| 20260830052830 | 78 | 178 | 9.0 | 11.0 | 0.00 | 0.00 | 0.00 | 47 | 1016.8 |
| 20260830052326 | 79 | 169 | 8.0 | 11.0 | 0.00 | 0.00 | 0.00 | 47 | 1016.8 |
| 20260830051821 | 80 | 171 | 8.0 | 13.0 | 0.00 | 0.00 | 0.00 | 46 | 1017.0 |
| 20260830051317 | 80 | 177 | 9.0 | 13.0 | 0.00 | 0.00 | 0.00 | 45 | 1016.8 |
| 20260830050815 | 80 | 167 | 8.0 | 13.0 | 0.00 | 0.00 | 0.00 | 45 | 1017.0 |
| 20260830050311 | 80 | 186 | 10.0 | 14.0 | 0.00 | 0.00 | 0.00 | 44 | 1017.0 |
| 20260830045808 | 80 | 177 | 12.0 | 13.0 | 0.00 | 0.00 | 0.00 | 44 | 1016.9 |
| 20260830045306 | 80 | 180 | 8.0 | 14.0 | 0.00 | 0.00 | 0.00 | 44 | 1016.8 |
| 20260830044802 | 80 | 175 | 9.0 | 13.0 | 0.00 | 0.00 | 0.00 | 44 | 1017.1 |
| 20260830044259 | 80 | 173 | 9.0 | 12.0 | 0.00 | 0.00 | 0.00 | 44 | 1017.0 |
| 20260830043753 | 81 | 171 | 11.0 | 13.0 | 0.00 | 0.00 | 0.00 | 44 | 1017.0 |
| 20260830043248 | 81 | 164 | 9.0 | 13.0 | 0.00 | 0.00 | 0.00 | 43 | 1017.1 |
| 20260830042745 | 81 | 168 | 9.0 | 14.0 | 0.00 | 0.00 | 0.00 | 43 | 1017.0 |
| 20260830042240 | 82 | 171 | 10.0 | 14.0 | 0.00 | 0.00 | 0.00 | 43 | 1017.1 |
| 20260830041739 | 82 | 165 | 9.0 | 14.0 | 0.00 | 0.00 | 0.00 | 42 | 1016.9 |
| 20260830041233 | 82 | 177 | 11.0 | 14.0 | 0.00 | 0.00 | 0.00 | 42 | 1016.9 |
| 20260830040729 | 82 | 165 | 8.0 | 13.0 | 0.00 | 0.00 | 0.00 | 43 | 1016.9 |
| 20260830040226 | 82 | 164 | 10.0 | 12.0 | 0.00 | 0.00 | 0.00 | 42 | 1017.1 |
| 20260830035723 | 82 | 166 | 9.0 | 12.0 | 0.00 | 0.00 | 0.00 | 42 | 1017.0 |
| 20260830035218 | 83 | 165 | 9.0 | 15.0 | 0.00 | 0.00 | 0.00 | 41 | 1016.8 |
| 20260830034713 | 82 | 164 | 10.0 | 14.0 | 0.00 | 0.00 | 0.00 | 42 | 1016.8 |
| 20260830034213 | 83 | 167 | 13.0 | 14.0 | 0.00 | 0.00 | 0.00 | 41 | 1016.7 |
| 20260830033709 | 83 | 171 | 14.0 | 15.0 | 0.00 | 0.00 | 0.00 | 41 | 1016.7 |
| 20260830033203 | 83 | 162 | 11.0 | 13.0 | 0.00 | 0.00 | 0.00 | 41 | 1016.9 |
| 20260830032702 | 84 | 166 | 10.0 | 15.0 | 0.00 | 0.00 | 0.00 | 40 | 1016.7 |
| 20260830032157 | 84 | 156 | 9.0 | 16.0 | 0.00 | 0.00 | 0.00 | 40 | 1016.8 |
| 20260830031653 | 84 | 169 | 10.0 | 15.0 | 0.00 | 0.00 | 0.00 | 40 | 1016.6 |
| 20260830031148 | 84 | 162 | 9.0 | 15.0 | 0.00 | 0.00 | 0.00 | 39 | 1016.8 |
| 20260830030643 | 84 | 158 | 9.0 | 15.0 | 0.00 | 0.00 | 0.00 | 39 | 1016.8 |
| 20260830030139 | 84 | 164 | 13.0 | 16.0 | 0.00 | 0.00 | 0.00 | 39 | 1016.7 |
| 20260830025637 | 85 | 154 | 13.0 | 15.0 | 0.00 | 0.00 | 0.00 | 39 | 1016.7 |
| 20260830025132 | 85 | 162 | 10.0 | 13.0 | 0.00 | 0.00 | 0.00 | 39 | 1016.5 |
| 20260830024627 | 85 | 164 | 9.0 | 16.0 | 0.00 | 0.00 | 0.00 | 39 | 1016.7 |
| 20260830024126 | 85 | 165 | 13.0 | 15.0 | 0.00 | 0.00 | 0.00 | 38 | 1016.5 |
| 20260830023624 | 85 | 151 | 9.0 | 15.0 | 0.00 | 0.00 | 0.00 | 38 | 1016.3 |
| 20260830023118 | 86 | 154 | 12.0 | 15.0 | 0.00 | 0.00 | 0.00 | 37 | 1016.5 |
| 20260830022613 | 86 | 158 | 12.0 | 15.0 | 0.00 | 0.00 | 0.00 | 37 | 1016.5 |
| 20260830022109 | 86 | 158 | 9.0 | 12.0 | 0.00 | 0.00 | 0.00 | 38 | 1016.2 |
| 20260830021608 | 86 | 158 | 8.0 | 12.0 | 0.00 | 0.00 | 0.00 | 37 | 1016.2 |
| 20260830021103 | 86 | 157 | 12.0 | 15.0 | 0.00 | 0.00 | 0.00 | 37 | 1016.2 |
| 20260830020602 | 86 | 153 | 9.0 | 13.0 | 0.00 | 0.00 | 0.00 | 37 | 1016.1 |
| 20260830020058 | 87 | 156 | 9.0 | 12.0 | 0.00 | 0.00 | 0.00 | 37 | 1016.0 |
| 20260830015552 | 87 | 167 | 7.0 | 13.0 | 0.00 | 0.00 | 0.00 | 36 | 1016.1 |
| 20260830015049 | 88 | 165 | 11.0 | 19.0 | 0.00 | 0.00 | 0.00 | 36 | 1015.9 |
| 20260830014543 | 88 | 163 | 9.0 | 16.0 | 0.00 | 0.00 | 0.00 | 36 | 1015.9 |
| 20260830014033 | 88 | 165 | 13.0 | 15.0 | 0.00 | 0.00 | 0.00 | 35 | 1015.8 |
| 20260830013529 | 88 | 163 | 9.0 | 14.0 | 0.00 | 0.00 | 0.00 | 35 | 1015.8 |
| 20260830013025 | 89 | 161 | 14.0 | 16.0 | 0.00 | 0.00 | 0.00 | 34 | 1016.0 |
| 20260830012524 | 89 | 179 | 8.0 | 18.0 | 0.00 | 0.00 | 0.00 | 35 | 1015.8 |
| 20260830012020 | 90 | 164 | 14.0 | 18.0 | 0.00 | 0.00 | 0.00 | 34 | 1015.5 |